Location: Waco, TX
(31.5480°N, 97.1670°W)
Time: 09:23:25
(UTC-05:00)

ISS - Pass Details

Date: 27 May 2017
Orbit: 402 x 409 km, 51.6° (Epoch: 25 May)

Event Time Altitude Azimuth Distance (km) Brightness Sun altitude
Rises 04:57:03 0° 308° (NW) 2,319 - -16.8°
Reaches altitude 10° 04:59:11 10° 302° (WNW) 1,455 - -16.5°
Exits shadow 05:01:15 31° 278° (W) 726 -2.9 -16.1°
Maximum altitude 05:02:19 44° 229° (SW) 561 -3.6 -15.9°
Drops below altitude 10° 05:05:26 10° 155° (SSE) 1,444 -1.2 -15.4°
Sets 05:07:32 0° 149° (SSE) 2,298 -0.1 -15.1°
